Airfield :
LOGIN :

Register | Disclaimer

   EN    FR    IT 

 










Legend :    VFR   Marginal VFR   IFR   Intensive IFR   Very Intensive IFR
Visi :
Ceiling :
>= 8 km
>= 3000ft
5 to 8 km
1000 to 3000 ft
1500m to 5 km
500 to 1000 ft
800 to 1500m
200 to 500 ft
< 800m
< 200 ft
Symbols :   Thunderstorms  Fog  Heavy snow  Heavy precipitations  Wind > 20 kt
SIGMETs :     Misc.  Thunderstorms  Icing  Turbulence  Mountain Waves  Volcanic Ashes







- Airport Elevation : 156 ft
- IATA code : LCC


LIBN - Lecce Galatine (military)

CURRENT METAR :
  • 231555Z 03007KT CAVOK 35/18 Q1012 RMK SKC VIS MIN 9999 WIND THR14 02008KT WIND THR32 /////KT BLU

EXPIRED METARs :
  • 231455Z 36006KT CAVOK 37/15 Q1012 RMK SKC VIS MIN 9999 WIND THR14 06006KT WIND THR32 /////KT BLU
  • 231355Z 02008KT CAVOK 37/15 Q1013 RMK SKC VIS MIN 9999 WIND THR14 01007KT WIND THR32 /////KT BLU

Expired Forecast.
No reported NOTAMs for that airfield.



MET'MAP, your aeronautical weather chart ! - Copyright ORBIFLY December 2007 - Disclaimer

ORBIFLY MET'MAP TEAM :

Programming & Development : Alexandra Zaïnal
Concept & Development : Baudouin d'Aumeries
Co-Development & Prog : Marc-Olivier Méhu
Technical & hardware support : Manuel Goepfert

Contact : metmap@orbifly.com




SOURCES & CREDITS :

   NOAA